Regional Weather Roundup
Issued by NWS Goodland, KS

Home | Current Version | Previous Version | Text Only | Print | Product List | Glossary Off
Versions: 1 2 3 4 5 6 7 8 9 10 11 12 13 14 15 16 17 18 19 20 21 22 23 24 25 26 27 28 29 30 31 32 33 34 35 36 37 38 39 40 41 42 43 44 45 46 47 48 49 50

000
ASUS43 KGLD 252308
RWRGLD

GOODLAND FORECAST AREA HOURLY WEATHER ROUNDUP
NATIONAL WEATHER SERVICE GOODLAND KS
500 PM MDT FRI JUL 25 2014

...OFFICIAL OBSERVATIONS...

CITY           SKY/WX    TMP DP  RH WIND       PRES   REMARKS
GOODLAND KS    SUNNY     95  59  30 NE12      29.93F
HILL CITY KS   MOSUNNY  100  65  31 N13       29.80F HX 103
IMPERIAL NEB   SUNNY     93  60  33 NE8       29.90F
MCCOOK NEB     SUNNY     95  64  35 E12       29.85F
AKRON CO       PTSUNNY   91  46  21 SE12      30.01R
BURLINGTON CO  SUNNY     94  57  28 E12       29.97F
LIMON CO       PTSUNNY   89  43  20 E12       30.07R
$$

...UNOFFICIAL OBSERVATIONS...

CITY           SKY/WX    TMP DP  RH WIND       PRES   REMARKS
COLBY KS       SUNNY     91  70  49 N7        29.90S
GOVE KS          N/A    101  32   9 MISG        N/A
LENORA KS        N/A     95  32  11 MISG        N/A
NORTON KS      SUNNY     95  61  31 N9        29.83S
OBERLIN KS     FAIR      95  61  31 NE12      29.85F
SHARON SPRINGS   N/A    100  59  25 E8G15       N/A
TRIBUNE KS     MOSUNNY   88 N/A N/A E14       29.91F
WAKEENEY KS      N/A    103  53  18 MISG        N/A  HX 101
TRENTON NEB      N/A     92  32  12 NE12        N/A
KIT CARSON CO    N/A     97  57  26 N13G20      N/A
WRAY CO          N/A     97  48  19 E5        29.93
YUMA CO          N/A     90  51  26 E9          N/A
$$


USA.gov is the U.S. government's official web portal to all federal, state and local government web resources and services.